Regional Weather Roundup
Issued by NWS

Home | Current Version | Previous Version | Graphics & Text | Print | Product List | Glossary On
Versions: 1 2 3 4 5 6 7 8 9 10 11 12 13 14 15 16 17 18 19 20 21 22 23 24 25 26 27 28 29 30 31 32 33 34 35 36 37 38 39 40 41 42 43 44 45 46 47 48 49 50
000
ASUS43 KFSD 032210
RWRSD

WEATHER ROUNDUP FOR SOUTH DAKOTA
NATIONAL WEATHER SERVICE SIOUX FALLS SD
500 PM CDT THU SEP 03 2015

NOTE: "FAIR" INDICATES FEW OR NO CLOUDS BELOW 12,000 FEET WITH NO
SIGNIFICANT WEATHER AND/OR OBSTRUCTIONS TO VISIBILITY.


SDZ001>005-009-010-012>017-032300-
NORTHWEST AND NORTH CENTRAL SOUTH DAKOTA

CITY           SKY/WX    TMP DP  RH WIND       PRES   REMARKS
BUFFALO          N/A     85  48  27 N8        29.71S
MOBRIDGE       PTSUNNY   96  61  31 SE16      29.64F HX  96
$$

SDZ012>016-024>037-041>051-057-063-072>074-032300-
SOUTHWEST AND SOUTH CENTRAL SOUTH DAKOTA

CITY           SKY/WX    TMP DP  RH WIND       PRES   REMARKS
RAPID CTY ARPT PTSUNNY   93  48  21 S14G24    29.73F
PIERRE         MOSUNNY   97  54  23 SE22G28   29.67F HX  95
CUSTER         PTSUNNY   88  35  15 W12       29.94F
ELLSWORTH AFB  PTSUNNY   95  48  20 NE9G17    29.73
PHILIP         CLOUDY    93  57  29 SE8       29.68S
PINE RIDGE     CLOUDY    94  51  23 S7        29.77F
WINNER         FAIR      95  56  26 SE14      29.72F
$$

SDZ004>011-016>023-039-040-032300-
NORTHEAST SOUTH DAKOTA

CITY           SKY/WX    TMP DP  RH WIND       PRES   REMARKS
ABERDEEN       SUNNY     92  70  48 S15       29.72F HX  97
WATERTOWN      SUNNY     89  70  53 S12       29.79F
BROOKINGS      SUNNY     88  70  55 S13G20    29.81S
SISSETON         N/A     91  73  55 S18       29.75F HX  99
$$

SDZ017-020-022-023-036>040-048>070-032300-
SOUTHEAST SOUTH DAKOTA

CITY           SKY/WX    TMP DP  RH WIND       PRES   REMARKS
SIOUX FALLS    MOSUNNY   86  71  60 SE14G22   29.78F
HURON          SUNNY     91  70  49 SE13      29.72F HX  96
CHAMBERLAIN    MOSUNNY   90  71  53 SE10      29.72F HX  96
MITCHELL       SUNNY     90  72  55 SE15      29.73F HX  97
YANKTON        SUNNY     88  72  58 SE17      29.74F
$$

ABBREVIATIONS USED IN REMARKS
   TC - TEMPERATURE IN CELSIUS
  WCI - WIND CHILL INDEX
   HX - HEAT INDEX
  VSB - VISIBILITY




USA.gov is the U.S. government's official web portal to all federal, state and local government web resources and services.